TimeCDT,TemperatureF,Dew PointF,Humidity,Sea Level PressureIn,VisibilityMPH,Wind Direction,Wind SpeedMPH,Gust SpeedMPH,PrecipitationIn,Events,Conditions,WindDirDegrees,DateUTC
12:53 AM,36.0,34.0,93,30.39,10.0,WNW,4.6,-,N/A,,Overcast,290,2012-10-06 05:53:00
1:53 AM,35.1,32.0,89,30.39,10.0,West,4.6,-,N/A,,Mostly Cloudy,270,2012-10-06 06:53:00
2:53 AM,30.9,30.0,96,30.40,10.0,NW,4.6,-,N/A,,Clear,320,2012-10-06 07:53:00
3:53 AM,33.1,32.0,96,30.37,10.0,North,8.1,-,N/A,,Partly Cloudy,360,2012-10-06 08:53:00
4:53 AM,33.1,26.1,75,30.37,10.0,Variable,4.6,-,N/A,,Clear,0,2012-10-06 09:53:00
5:53 AM,32.0,25.0,75,30.38,10.0,Calm,Calm,-,N/A,,Clear,0,2012-10-06 10:53:00
6:53 AM,30.2,26.6,86,30.34,10.0,Calm,Calm,-,N/A,,Overcast,0,2012-10-06 11:53:00
7:53 AM,30.9,27.0,85,30.43,10.0,NNW,3.5,-,N/A,,Overcast,340,2012-10-06 12:53:00
8:53 AM,32.0,26.6,80,30.37,10.0,Calm,Calm,-,N/A,,Overcast,0,2012-10-06 13:53:00
9:53 AM,34.0,27.0,75,30.45,10.0,Variable,3.5,-,N/A,,Overcast,0,2012-10-06 14:53:00
10:13 AM,32.0,28.4,87,30.40,2.0,North,10.4,-,0.00,Snow,Light Snow,10,2012-10-06 15:13:00
10:21 AM,32.0,28.4,87,30.40,1.5,NNE,9.2,-,0.00,Snow,Light Snow,20,2012-10-06 15:21:00
10:30 AM,30.2,28.4,93,30.41,1.2,NE,6.9,-,0.00,Snow,Light Snow,40,2012-10-06 15:30:00
10:44 AM,32.0,28.4,87,30.40,1.5,NE,5.8,-,0.00,Snow,Light Snow,50,2012-10-06 15:44:00
10:53 AM,32.0,28.9,88,30.46,1.0,NE,3.5,-,0.00,Snow,Light Snow,50,2012-10-06 15:53:00
11:09 AM,32.0,30.2,93,30.41,1.0,Calm,Calm,-,0.01,Snow,Light Snow,0,2012-10-06 16:09:00
11:26 AM,32.0,30.2,93,30.41,0.8,Calm,Calm,-,0.02,Snow,Light Snow,0,2012-10-06 16:26:00
11:46 AM,32.0,30.2,93,30.41,0.8,NNE,4.6,-,0.03,Snow,Light Snow,30,2012-10-06 16:46:00
11:53 AM,32.0,28.9,88,30.47,0.8,NE,4.6,-,0.03,Snow,Light Snow,40,2012-10-06 16:53:00
12:07 PM,32.0,30.2,93,30.41,0.8,NNE,4.6,-,0.01,Snow,Light Snow,30,2012-10-06 17:07:00
12:17 PM,32.0,30.2,93,30.41,0.8,NE,3.5,-,0.01,Snow,Light Snow,40,2012-10-06 17:17:00
12:25 PM,32.0,30.2,93,30.41,0.5,NE,3.5,-,0.02,Fog-Snow,Snow,50,2012-10-06 17:25:00
12:46 PM,32.0,30.2,93,30.41,1.2,ENE,3.5,-,0.03,Snow,Light Snow,60,2012-10-06 17:46:00
12:53 PM,32.0,30.0,92,30.48,1.2,NE,5.8,-,0.03,Snow,Light Snow,40,2012-10-06 17:53:00
1:14 PM,32.0,30.2,93,30.40,1.0,NNE,5.8,-,0.01,Snow,Light Snow,30,2012-10-06 18:14:00
1:24 PM,32.0,28.4,87,30.40,0.8,NNE,3.5,-,0.02,Snow,Light Snow,20,2012-10-06 18:24:00
1:39 PM,32.0,30.2,93,30.40,1.0,Calm,Calm,-,0.02,Snow,Light Snow,0,2012-10-06 18:39:00
1:53 PM,33.1,30.0,89,30.46,1.5,Calm,Calm,-,0.03,Snow,Light Snow,0,2012-10-06 18:53:00
2:14 PM,33.8,30.2,87,30.38,1.5,Variable,4.6,-,0.00,Snow,Light Snow,0,2012-10-06 19:14:00
2:53 PM,34.0,30.9,89,30.45,1.8,West,3.5,-,0.01,Snow,Light Snow,260,2012-10-06 19:53:00
3:02 PM,33.8,30.2,87,30.37,2.5,Calm,Calm,-,0.00,Snow,Light Snow,0,2012-10-06 20:02:00
3:10 PM,33.8,30.2,87,30.37,3.0,Calm,Calm,-,0.00,Snow,Light Snow,0,2012-10-06 20:10:00
3:34 PM,35.6,30.2,81,30.37,2.5,West,4.6,-,0.00,Snow,Light Snow,280,2012-10-06 20:34:00
3:39 PM,35.6,30.2,81,30.37,3.0,WSW,4.6,-,0.01,Snow,Light Snow,250,2012-10-06 20:39:00
3:48 PM,35.6,32.0,87,30.37,3.0,West,4.6,-,0.01,Snow,Light Snow,260,2012-10-06 20:48:00
3:53 PM,35.1,32.0,89,30.44,4.0,West,5.8,-,0.01,Snow,Light Snow,270,2012-10-06 20:53:00
4:13 PM,35.6,33.8,93,30.37,6.0,WNW,5.8,-,0.00,Snow,Light Snow,290,2012-10-06 21:13:00
4:28 PM,35.6,32.0,87,30.37,3.0,WNW,5.8,-,0.00,Snow,Light Snow,290,2012-10-06 21:28:00
4:42 PM,35.6,33.8,93,30.37,6.0,West,8.1,-,0.01,Snow,Light Snow,280,2012-10-06 21:42:00
4:47 PM,35.6,33.8,93,30.37,5.0,West,8.1,-,0.01,Snow,Light Snow,280,2012-10-06 21:47:00
4:53 PM,36.0,33.1,89,30.43,7.0,West,9.2,-,0.01,Snow,Light Snow,280,2012-10-06 21:53:00
5:37 PM,35.6,33.8,93,30.36,10.0,West,5.8,-,0.00,,Overcast,270,2012-10-06 22:37:00
5:53 PM,37.4,32.0,81,30.36,10.0,West,9.2,-,N/A,,Overcast,270,2012-10-06 22:53:00
6:23 PM,35.6,30.2,81,30.36,10.0,West,9.2,-,N/A,,Overcast,280,2012-10-06 23:23:00
6:53 PM,36.0,32.0,86,30.42,10.0,West,6.9,-,N/A,,Overcast,270,2012-10-06 23:53:00
7:42 PM,33.8,30.2,87,30.35,10.0,West,5.8,-,N/A,,Scattered Clouds,270,2012-10-07 00:42:00
7:53 PM,33.1,30.0,89,30.43,10.0,West,6.9,-,N/A,,Partly Cloudy,270,2012-10-07 00:53:00
8:53 PM,32.0,28.9,88,30.42,10.0,WSW,5.8,-,N/A,,Clear,250,2012-10-07 01:53:00
9:53 PM,28.9,27.0,92,30.42,10.0,West,5.8,-,N/A,,Clear,270,2012-10-07 02:53:00
10:53 PM,26.1,25.0,96,30.42,10.0,West,4.6,-,N/A,,Clear,260,2012-10-07 03:53:00
11:53 PM,26.1,24.1,92,30.41,10.0,West,3.5,-,N/A,,Clear,260,2012-10-07 04:53:00